Weather History for Spokane, WA

Change the Weather History Date:

Monday, June 24, 2013

  Actual Average Record
Temperature  
Mean Temperature 58 °F 64 °F  
Max Temperature 63 °F 76 °F 98 °F (1912)
Min Temperature 52 °F 52 °F 36 °F (1985)
Degree Days  
Heating Degree Days 7 3  
Month to date heating degree days 131 119  
Since 1 June heating degree days 131 119  
Since 1 July heating degree days 6231 6576  
Cooling Degree Days 0 2  
Month to date cooling degree days 23 32  
Year to date cooling degree days 53 46  
Since 1 June cooling degree days 23 32  
Growing Degree Days 8 (Base 50)    
Moisture  
Dew Point 54 °F    
Average Humidity 80    
Maximum Humidity 93    
Minimum Humidity 67    
Precipitation  
Precipitation 0.21 in 0.04 in 1.03 in (1950)
Month to date precipitation 1.70 1.08  
Year to date precipitation 6.63 8.71  
Snow  
Snow 0.00 in 0.00 in - ()
Month to date snowfall 0.0 0.0  
Since 1 June snowfall 0.0 0.0  
Since 1 July snowfall 43.5 44.9  
Snow Depth 0.00 in    
Sea Level Pressure  
Sea Level Pressure 29.66 in    
Wind  
Wind Speed 8 mph (SW)    
Max Wind Speed 16 mph    
Max Gust Speed 20 mph    
Visibility 8 miles    
Events Rain    
T = Trace of Precipitation, MM = Missing Value Source: NWS Daily Summary

Daily Weather History Graph

Daily Weather History Graph

Search for Another Location

Airport:

Trip Planner

Search our weather history database for the weather conditions in past years. The results will help you decide how hot, cold, wet, or windy it might be!

Date:

Astronomy

Jun. 24, 2013 Rise Set
Actual Time 4:53 AM PDT 8:52 PM PDT
Civil Twilight 4:12 AM PDT 9:32 PM PDT
Nautical Twilight 3:16 AM PDT 10:29 PM PDT
Astronomical Twilight 1:45 AM PDT 11:59 PM PDT
Moon 9:46 PM PDT (6/24) 6:34 AM PDT (6/24)
Length of Visible Light 17h 20m
Length of Day
15h 58m
Full, 97% of the Moon is Illuminated
Jun 24
Full
Jun 29
Last Quarter
Jul 8
New
Jul 15
First Quarter
Jul 22
Full

Hourly Weather History & Observations

Time (PDT) Temp. Dew Point Humidity Pressure Visibility Wind Dir Wind Speed Gust Speed Precip Events Conditions
12:53 AM 63.0 °F 51.1 °F 65% 29.60 in 10.0 mi NNW 4.6 mph - 0.00 in   Overcast
1:53 AM 60.1 °F 53.1 °F 78% 29.60 in 10.0 mi WNW 5.8 mph - 0.00 in Rain Light Rain
2:53 AM 59.0 °F 53.1 °F 81% 29.60 in 10.0 mi West 9.2 mph - 0.00 in   Overcast
3:53 AM 57.0 °F 53.1 °F 87% 29.61 in 10.0 mi WNW 10.4 mph - 0.00 in Rain Light Rain
4:53 AM 55.9 °F 54.0 °F 93% 29.62 in 4.0 mi West 6.9 mph - 0.04 in Rain Rain
5:53 AM 55.9 °F 54.0 °F 93% 29.61 in 10.0 mi North 3.5 mph - 0.06 in Rain Light Rain
6:08 AM 55.4 °F 53.6 °F 94% 29.64 in 10.0 mi North 3.5 mph - 0.00 in   Overcast
6:53 AM 55.9 °F 54.0 °F 93% 29.62 in 10.0 mi Calm Calm - 0.00 in   Overcast
7:35 AM 57.2 °F 55.4 °F 94% 29.65 in 10.0 mi Calm Calm - N/A   Overcast
7:53 AM 57.0 °F 55.0 °F 93% 29.62 in 10.0 mi South 3.5 mph - N/A   Overcast
8:06 AM 57.2 °F 55.4 °F 94% 29.65 in 2.0 mi SSE 3.5 mph - 0.00 in   Light Drizzle
8:21 AM 57.2 °F 55.4 °F 94% 29.65 in 3.0 mi South 3.5 mph - 0.01 in   Light Drizzle
8:53 AM 57.9 °F 55.0 °F 90% 29.63 in 9.0 mi South 5.8 mph - 0.01 in   Overcast
9:53 AM 59.0 °F 55.0 °F 87% 29.63 in 10.0 mi South 5.8 mph - N/A   Overcast
10:24 AM 60.8 °F 53.6 °F 77% 29.66 in 10.0 mi South 8.1 mph - N/A   Overcast
10:53 AM 61.0 °F 55.0 °F 81% 29.63 in 10.0 mi South 6.9 mph - N/A   Mostly Cloudy
11:53 AM 63.0 °F 54.0 °F 72% 29.63 in 10.0 mi SSW 9.2 mph - N/A   Overcast
12:53 PM 57.9 °F 55.9 °F 93% 29.65 in 4.0 mi SSW 10.4 mph - 0.02 in Rain Light Rain
1:53 PM 60.1 °F 55.0 °F 83% 29.66 in 9.0 mi SW 12.7 mph - 0.03 in Rain Light Rain
2:53 PM 60.1 °F 54.0 °F 80% 29.65 in 10.0 mi SW 6.9 mph - 0.00 in   Overcast
3:53 PM 62.1 °F 53.1 °F 72% 29.66 in 10.0 mi SW 6.9 mph - N/A   Overcast
4:53 PM 62.1 °F 52.0 °F 70% 29.67 in 10.0 mi SW 5.8 mph - N/A   Overcast
5:53 PM 61.0 °F 54.0 °F 78% 29.66 in 10.0 mi South 6.9 mph - 0.00 in Rain Light Rain
6:53 PM 60.1 °F 55.0 °F 83% 29.68 in 10.0 mi South 8.1 mph - 0.01 in Rain Light Rain
7:53 PM 57.0 °F 55.0 °F 93% 29.69 in 7.0 mi SW 12.7 mph - 0.01 in Rain Light Rain
8:53 PM 57.0 °F 54.0 °F 89% 29.70 in 7.0 mi SW 11.5 mph - 0.01 in Rain Light Rain
9:53 PM 55.9 °F 53.1 °F 90% 29.72 in 10.0 mi SW 10.4 mph - 0.01 in Rain Light Rain
10:08 PM 55.4 °F 53.6 °F 94% 29.74 in 7.0 mi SSW 10.4 mph - 0.00 in Rain Light Rain
10:45 PM 55.4 °F 53.6 °F 94% 29.74 in 7.0 mi SW 10.4 mph - 0.00 in Rain Light Rain
10:53 PM 54.0 °F 52.0 °F 93% 29.73 in 7.0 mi SSW 10.4 mph - 0.00 in Rain Light Rain
11:32 PM 53.6 °F 51.8 °F 94% 29.74 in 10.0 mi South 6.9 mph - 0.01 in   Overcast
11:53 PM 54.0 °F 52.0 °F 93% 29.73 in 10.0 mi South 3.5 mph - 0.01 in   Overcast